Regional Weather Roundup
Issued by NWS

Home | Current Version | Previous Version | Text Only | Print | Product List | Glossary Off
Versions: 1 2 3 4 5 6 7 8 9 10 11 12 13 14 15 16 17 18 19 20 21 22 23 24 25 26 27 28 29 30 31 32 33 34 35 36 37 38 39 40 41 42 43 44 45 46 47 48 49 50

000
ASUS43 KDTX 300901
RWRMI
MICHIGAN HOURLY REGIONAL WEATHER ROUNDUP
NATIONAL WEATHER SERVICE DETROIT/PONTIAC MI
500 AM EDT THU MAR 30 2017

NOTE: "FAIR" INDICATES FEW OR NO CLOUDS BELOW 12,000 FEET WITH NO
SIGNIFICANT WEATHER AND/OR OBSTRUCTION TO VISIBILITY.

MIZ047>049-052>055-059>063-066>070-074>076-081>083-301000-
SOUTHEAST LOWER MICHIGAN

CITY           SKY/WX    TMP DP  RH WIND       PRES   REMARKS
ADRIAN         CLOUDY    40  33  76 E16G24    30.04F WCI  31
ALMA           CLOUDY    36  31  82 E13       30.10F WCI  28
ANN ARBOR      CLOUDY    41  33  73 NE12      30.07F
BAD AXE        CLOUDY    38  31  75 E9        30.16F WCI  32
CARO           CLOUDY    38  32  79 E5        30.13F WCI  34
DETROIT CITY   CLOUDY    41  33  73 E13       30.11F
DETROIT        CLOUDY    42  33  70 E12       30.11F
FLINT          CLOUDY    38  31  76 E6        30.11F WCI  33
GROSSE ILE     CLOUDY    42  33  70 E10G17    30.09F
HILLSDALE      CLOUDY    37  32  81 E23       29.98F WCI  26
HOWELL         LGT RAIN  39  32  75 E8        30.07F WCI  34

CITY           SKY/WX    TMP DP  RH WIND       PRES   REMARKS
JACKSON        CLOUDY    41  32  70 E14       30.02F
LAMBERTVILLE   LGT RAIN  41  34  76 E12G18    30.05F
LANSING        RAIN      36  31  82 E10       30.05F WCI  28
LAPEER         CLOUDY    39  32  75 E6        30.12F WCI  35
MASON          CLOUDY    38  34  84 E10       30.04F WCI  31
MONROE         LGT RAIN  43  33  69 E14G21    30.08F
MT. CLEMENS    CLOUDY    40  36  83 E12       30.10F WCI  34
PONTIAC        LGT RAIN  40  32  73 E10       30.09F WCI  33
PORT HOPE        N/A     36  31  82 E16       30.15F WCI  26
PORT HURON     CLOUDY    41  28  60 E8        30.15R
TRI CITIES     CLOUDY    37  31  78 NE12      30.13F WCI  29
MIDLAND        CLOUDY    37  30  77 NE12      30.13F WCI  29
TROY           CLOUDY    41  32  70 E7        30.13F
SAGINAW HB     CLOUDY    36  30  80 NE6       30.12F WCI  31
$$
MIZ043>046-050>051-056>058-064>065-071>073-077>080-301000-
SOUTHWEST LOWER MICHIGAN

CITY           SKY/WX    TMP DP  RH WIND       PRES   REMARKS
BATTLE CREEK   CLOUDY    41  34  76 E14G26    29.98F
BENTON HARBOR  LGT RAIN  42  37  82 E18G29    29.94F
BIG RAPIDS     CLOUDY    35  26  68 E9        30.07F WCI  28
COLDWATER      CLOUDY    43  31  62 E18G26    29.96F
FREMONT        CLOUDY    37  26  65 E15       30.03F WCI  28
HOLLAND        LGT RAIN  39  35  86 E17G26    29.97F WCI  30
GRAND RAPIDS   CLOUDY    37  34  89 E15       30.03F WCI  28
IONIA          MIX PCPN  34  30  85 E14G20    30.04F WCI  25
KALAMAZOO      RAIN      41  33  73 E8G18     29.98F
LUDINGTON      CLOUDY    37  26  64 E13G18    30.05F WCI  28
MARSHALL       CLOUDY    41  33  72 E14G21    29.99F
MOUNT PLEASANT CLOUDY    36  28  74 E8        30.10F WCI  29
MUSKEGON       LGT RAIN  38  30  73 E16G25    30.01F WCI  29
SOUTH HAVEN    LGT SNOW  39  37  92 E20G25    29.94F WCI  30
$$
MIZ016>042-301000-
NORTHERN LOWER MICHIGAN

CITY           SKY/WX    TMP DP  RH WIND       PRES   REMARKS
ALPENA         CLOUDY    35  28  75 E12       30.20F WCI  27
BEAVER ISLAND  CLOUDY    34  27  77 E13       30.18F WCI  25
BELLAIRE       CLOUDY    37  22  56 E3        30.14F
CADILLAC       CLOUDY    34  22  63 E12       30.08F WCI  25
CHARLEVOIX     CLOUDY    35  25  66 E14       30.19F WCI  26
FRANKFORT      CLOUDY    37  24  59 E6        30.10F WCI  32
GAYLORD        CLOUDY    33  23  66 VRB6      30.14F WCI  28
HARBOR SPRINGS CLOUDY    33  26  73 E13G18    30.18F WCI  24
HOUGHTON LAKE  CLOUDY    33  27  78 E14       30.13F WCI  23
MANISTEE       CLOUDY    37  24  59 E12       30.07F WCI  29
OSCODA         CLOUDY    36  30  78 E10G16    30.18F WCI  28
PELLSTON       CLOUDY    33  25  72 E10       30.20F WCI  25
ROGERS CITY    CLOUDY    34  27  75 E9        30.23F WCI  27
TRAVERSE CITY  CLOUDY    36  25  64 E5        30.12F WCI  32
$$
MIZ007>008-015-301000-
EASTERN UPPER MICHIGAN

CITY           SKY/WX    TMP DP  RH WIND       PRES   REMARKS
KINROSS        CLOUDY    32  24  72 SE13      30.24S WCI  22
MACKINAC ISLAN CLOUDY    33  28  83 E12G17    30.22F WCI  24
NEWBERRY       CLOUDY    31  23  72 E3        30.21S
S. S. MARIE    CLOUDY    35  23  61 E7        30.25R WCI  29
MUNISING         N/A     35  22  58 MISG      30.17F
$$
MIZ004>006-011>014-085-301000-
CENTRAL UPPER MICHIGAN

CITY           SKY/WX    TMP DP  RH WIND       PRES   REMARKS
MANISTIQUE     CLOUDY    34  26  72 E12       30.17F WCI  25
ESCANABA       CLOUDY    36  25  64 E9        30.15F WCI  29
MENOMINEE        N/A     36  31  82 E9        30.11F WCI  29
SAWYER-GWINN   CLOUDY    32  23  69 SE7       30.14S WCI  26
$$
MIZ001>003-009>011-084-301000-
WESTERN UPPER MICHIGAN

CITY           SKY/WX    TMP DP  RH WIND       PRES   REMARKS
IRON MOUNTAIN  CLOUDY    34  24  67 NE6       30.10F WCI  29
HOUGHTON       CLOUDY    32  27  81 E8        30.12F WCI  25
COPPER HARBOR    N/A     36  26  67 S5        30.16F WCI  32
IRONWOOD       CLOUDY    35  28  75 CALM      30.09F
$$

ABBREVIATIONS USED IN REMARKS
   TC - TEMPERATURE IN CELSIUS
  WCI - WIND CHILL INDEX
   HX - HEAT INDEX
  VSB - VISIBILITY




USA.gov is the U.S. government's official web portal to all federal, state and local government web resources and services.